Tracking 18840 objects as of 17-November-2017
HD Live streaming from Space Station
objects crossing your sky now

FENGYUN 1C DEB

Track FENGYUN 1C DEB now!
10-day predictions


NORAD ID: 37405
Int'l Code: 1999-025EFX
Perigee: 658.8 km
Apogee: 784.1 km
Inclination: 98.6 °
Period: 99.1 minutes
Semi major axis: 7092 km
RCS: 0.0122 m2 (small)
Launch date: May 10, 1999
Source: People's Republic of China (PRC)
Launch site: Taiyaun Space Center, China (TSC)

Note: This is SATELLITE DEBRIS
aabbcc
Your satellite tracking list
Your tracking list is empty




NASA's NSSDC Master Catalog

Two Line Element Set (TLE):
1 37405U 99025EFX 17304.98768486  .00001778  00000-0  41683-3 0  9993
2 37405  98.6137   2.2558 0088351  59.6936 301.2963 14.53485815455620
Source of the keplerian elements: AFSPC